Weather History for KSMQ - July, 2013

Change the Weather History Date:

Wednesday, July 31, 2013

  Actual Average Record
Temperature  
Mean Temperature 70 °F -  
Max Temperature 82 °F 84 °F 102 °F (1954)
Min Temperature 57 °F 62 °F 48 °F (1956)
Cooling Degree Days 4    
Growing Degree Days 20 (Base 50)    
Moisture  
Dew Point 60 °F    
Average Humidity 77    
Maximum Humidity 100    
Minimum Humidity 42    
Precipitation  
Precipitation 0.01 in - - ()
Sea Level Pressure  
Sea Level Pressure 30.10 in    
Wind  
Wind Speed 1 mph (SW)    
Max Wind Speed 5 mph    
Max Gust Speed -    
Visibility 9 miles    
Events      
Averages and records for this station are not official NWS values.
T = Trace of Precipitation, MM = Missing Value Source: NWS Daily Summary

Daily Weather History Graph

Daily Weather History Graph

Search for Another Location

Airport or City:

Trip Planner

Search our weather history database for the weather conditions in past years. The results will help you decide how hot, cold, wet, or windy it might be!

Date:

Astronomy

Jul. 31, 2013 Rise Set
Actual Time 5:54 AM EDT 8:14 PM EDT
Civil Twilight 5:24 AM EDT 8:45 PM EDT
Nautical Twilight 4:46 AM EDT 9:23 PM EDT
Astronomical Twilight 4:03 AM EDT 10:04 PM EDT
Moon 12:48 AM EDT (7/31) 3:28 PM EDT (7/31)
Length of Visible Light 15h 21m
Length of Day
14h 19m
Waning Crescent, 32% of the Moon is Illuminated
Jul 31
Waning Crescent
Aug 6
New
Aug 14
First Quarter
Aug 20
Full
Aug 28
Last Quarter

Hourly Weather History & Observations

Time (EDT) Temp. Heat Index Dew Point Humidity Pressure Visibility Wind Dir Wind Speed Gust Speed Precip Events Conditions
12:53 AM 62.1 °F - 60.1 °F 93% 30.14 in 10.0 mi Calm Calm - 0.01 in   Clear
1:46 AM 60.8 °F - 59.0 °F 94% 30.14 in 7.0 mi Calm Calm - N/A   Partly Cloudy
1:53 AM 59.0 °F - 57.9 °F 96% 30.14 in 8.0 mi Calm Calm - N/A   Clear
1:58 AM 59.0 °F - 57.2 °F 94% 30.14 in 1.8 mi Calm Calm - N/A   Clear
2:07 AM 60.8 °F - 57.2 °F 88% 30.14 in 4.0 mi Calm Calm - N/A   Clear
3:02 AM 59.0 °F - 57.2 °F 94% 30.13 in 1.8 mi NW 3.5 mph - N/A   Partly Cloudy
3:12 AM 57.2 °F - 57.2 °F 100% 30.14 in 3.0 mi Calm Calm - N/A   Partly Cloudy
3:53 AM 57.9 °F - 57.0 °F 97% 30.13 in 10.0 mi Calm Calm - N/A   Clear
4:53 AM 57.0 °F - 55.9 °F 96% 30.14 in 9.0 mi NW 3.5 mph - N/A   Clear
5:53 AM 57.0 °F - 55.9 °F 96% 30.15 in 10.0 mi Calm Calm - N/A   Clear
6:53 AM 59.0 °F - 57.0 °F 93% 30.15 in 10.0 mi Calm Calm - N/A   Clear
7:53 AM 64.0 °F - 59.0 °F 84% 30.16 in 10.0 mi Calm Calm - N/A   Clear
8:53 AM 69.1 °F - 61.0 °F 75% 30.16 in 10.0 mi Calm Calm - N/A   Clear
9:53 AM 75.0 °F - 60.1 °F 60% 30.14 in 10.0 mi Calm Calm - N/A   Clear
10:53 AM 75.9 °F - 57.9 °F 54% 30.14 in 10.0 mi Calm Calm - N/A   Clear
11:53 AM 78.1 °F - 61.0 °F 56% 30.13 in 10.0 mi SSE 3.5 mph - N/A   Clear
12:53 PM 80.1 °F 81.1 °F 61.0 °F 52% 30.11 in 10.0 mi Variable 4.6 mph - N/A   Scattered Clouds
1:53 PM 78.1 °F - 61.0 °F 56% 30.10 in 10.0 mi Calm Calm - N/A   Mostly Cloudy
2:53 PM 82.0 °F 81.7 °F 57.0 °F 42% 30.08 in 10.0 mi Variable 3.5 mph - N/A   Clear
3:53 PM 81.0 °F 81.6 °F 60.1 °F 49% 30.06 in 10.0 mi SSW 3.5 mph - N/A   Clear
4:53 PM 79.0 °F - 61.0 °F 54% 30.05 in 10.0 mi Calm Calm - N/A   Clear
5:53 PM 78.1 °F - 62.1 °F 58% 30.04 in 10.0 mi Variable 3.5 mph - N/A   Clear
6:53 PM 75.9 °F - 62.1 °F 62% 30.04 in 10.0 mi Calm Calm - N/A   Clear
7:53 PM 73.0 °F - 63.0 °F 71% 30.03 in 10.0 mi Calm Calm - N/A   Clear
8:53 PM 72.0 °F - 63.0 °F 73% 30.03 in 10.0 mi South 3.5 mph - N/A   Mostly Cloudy
9:53 PM 70.0 °F - 63.0 °F 78% 30.04 in 10.0 mi Calm Calm - N/A   Clear
10:53 PM 66.9 °F - 63.0 °F 87% 30.04 in 10.0 mi Calm Calm - N/A   Clear
11:53 PM 66.0 °F - 63.0 °F 90% 30.03 in 10.0 mi Calm Calm - N/A   Partly Cloudy